Tangra v3.6.0.5
Measurments of 4 objects
C:\Users\Public\111.avi
Asteroidal Video (AVI.2YUY), Time: OCR-ed Timestamps


Reversed Gamma, Colour, Measured Band, Integration, Digital Filter, Signal Method, Background Method, Instrumental Delay Corrections, Camera, AAV Integration, First Frame, Last Frame, Reversed Camera Response
1,00,no,Red,no,NoFilter,AperturePhotometry,AverageBackground,Not Applied,,,101,4844,

Object, Type, Aperture, Tolerance, FWHM, Measured, StartingX, StartingY, Fixed
1,OccultedStar,4,85,5,43,4,08,yes,355,0,272,6,no
2,GuidingStar,4,85,,2,65,yes,161,5,348,0,no
3,GuidingStar,4,85,,3,39,yes,599,3,259,3,no
4,GuidingStar,4,85,,3,15,yes,489,7,171,3,no


FrameNo,Time (UT),Signal (1), Background (1),Signal (2), Background (2),Signal (3), Background (3),Signal (4), Background (4)
101,[02:00:07.415],2458.0,1707.0,3581.0,2007.0,4872.0,2057.0,3155.0,1759.0
102,[02:00:07.455],2453.0,1702.0,3606.0,2006.0,4860.0,2054.0,3168.0,1773.0
103,[02:00:07.495],2803.0,1699.0,3662.0,1951.0,4750.0,1971.0,3050.0,1848.0
104,[02:00:07.535],2774.0,1658.0,3659.0,1946.0,4727.0,1938.0,3027.0,1805.0
105,[02:00:07.575],2776.0,1670.0,3641.0,1947.0,4738.0,1942.0,3038.0,1832.0
106,[02:00:07.615],2776.0,1650.0,3660.0,1953.0,4725.0,1940.0,3048.0,1817.0
107,[02:00:07.655],2537.0,1729.0,3671.0,2022.0,5136.0,2139.0,3223.0,1922.0
108,[02:00:07.695],2507.0,1694.0,3665.0,2011.0,5101.0,2113.0,3214.0,1916.0
109,[02:00:07.735],2480.0,1674.0,3647.0,2013.0,5101.0,2107.0,3221.0,1905.0
110,[02:00:07.775],2497.0,1658.0,3641.0,2013.0,5111.0,2112.0,3221.0,1913.0
111,[02:00:07.815],2643.0,1593.0,3488.0,1932.0,4420.0,1976.0,3038.0,1931.0
112,[02:00:07.855],2570.0,1542.0,3481.0,1951.0,4445.0,1969.0,3013.0,1890.0
113,[02:00:07.895],2579.0,1548.0,3478.0,1949.0,4430.0,1973.0,3008.0,1897.0
114,[02:00:07.935],2597.0,1559.0,3459.0,1937.0,4410.0,1951.0,2982.0,1874.0
115,[02:00:07.975],2589.0,1840.0,3580.0,2006.0,4852.0,2040.0,3111.0,1857.0
116,[02:00:08.015],2550.0,1800.0,3578.0,2006.0,4824.0,2018.0,3094.0,1834.0
117,[02:00:08.055],2555.0,1785.0,3588.0,2020.0,4819.0,2011.0,3097.0,1824.0
118,[02:00:08.095],2519.0,1778.0,3586.0,2019.0,4819.0,2016.0,3090.0,1825.0
119,[02:00:08.135],2622.0,1687.0,3666.0,2010.0,4837.0,2140.0,3151.0,1722.0
120,[02:00:08.175],2563.0,1635.0,3626.0,1998.0,4825.0,2108.0,3097.0,1689.0
121,[02:00:08.215],2576.0,1635.0,3642.0,1987.0,4822.0,2124.0,3092.0,1690.0
122,[02:00:08.255],2597.0,1634.0,3646.0,2009.0,4825.0,2118.0,3115.0,1688.0
123,[02:00:08.295],2830.0,1803.0,3576.0,2057.0,5040.0,1991.0,3191.0,1820.0
124,[02:00:08.335],2761.0,1745.0,3600.0,2053.0,5018.0,1965.0,3176.0,1786.0
125,[02:00:08.375],2770.0,1759.0,3582.0,2060.0,5033.0,1972.0,3202.0,1790.0
126,[02:00:08.415],2768.0,1755.0,3605.0,2067.0,5026.0,1972.0,3177.0,1783.0
127,[02:00:08.455],2757.0,1975.0,3780.0,1989.0,4927.0,2166.0,3330.0,1871.0
128,[02:00:08.495],2693.0,1932.0,3777.0,1995.0,4900.0,2145.0,3310.0,1855.0
129,[02:00:08.535],2678.0,1931.0,3771.0,1988.0,4897.0,2146.0,3304.0,1851.0
130,[02:00:08.575],2706.0,1933.0,3775.0,1977.0,4901.0,2147.0,3303.0,1844.0
131,[02:00:08.615],2380.0,1733.0,3372.0,1995.0,4810.0,2036.0,2919.0,1869.0
132,[02:00:08.655],2349.0,1686.0,3381.0,2009.0,4789.0,2024.0,2910.0,1841.0
133,[02:00:08.695],2349.0,1687.0,3372.0,2009.0,4777.0,2021.0,2878.0,1843.0
134,[02:00:08.735],2360.0,1712.0,3359.0,2014.0,4772.0,2015.0,2899.0,1834.0
135,[02:00:08.775],2454.0,1796.0,3483.0,2038.0,5112.0,2114.0,2894.0,1779.0
136,[02:00:08.815],2405.0,1754.0,3493.0,2023.0,5116.0,2119.0,2885.0,1762.0
137,[02:00:08.855],2421.0,1749.0,3476.0,2032.0,5062.0,2082.0,2880.0,1758.0
138,[02:00:08.895],2393.0,1756.0,3484.0,2039.0,5107.0,2109.0,2878.0,1763.0
139,[02:00:08.935],2853.0,1821.0,3837.0,2049.0,5088.0,2112.0,2954.0,1849.0
140,[02:00:08.975],2794.0,1780.0,3845.0,2050.0,5081.0,2096.0,2932.0,1814.0
141,[02:00:09.015],2800.0,1766.0,3843.0,2058.0,5065.0,2111.0,2926.0,1806.0
142,[02:00:09.055],2811.0,1780.0,3824.0,2044.0,5063.0,2096.0,2938.0,1815.0
143,[02:00:09.095],2640.0,1707.0,3628.0,2093.0,5015.0,2168.0,2612.0,1714.0
144,[02:00:09.135],2567.0,1657.0,3628.0,2098.0,4965.0,2131.0,2578.0,1690.0
145,[02:00:09.175],2589.0,1673.0,3617.0,2103.0,4981.0,2148.0,2572.0,1685.0
146,[02:00:09.215],2562.0,1663.0,3597.0,2085.0,4947.0,2141.0,2606.0,1694.0
147,[02:00:09.255],3001.0,1920.0,3506.0,2075.0,5003.0,2149.0,2967.0,1703.0
148,[02:00:09.295],2938.0,1882.0,3525.0,2081.0,4987.0,2127.0,2943.0,1689.0
149,[02:00:09.335],2936.0,1874.0,3526.0,2077.0,4994.0,2123.0,2956.0,1696.0
150,[02:00:09.375],2951.0,1873.0,3513.0,2079.0,4998.0,2134.0,2957.0,1697.0
151,[02:00:09.415],2682.0,1796.0,3714.0,2068.0,4491.0,1893.0,2840.0,1795.0
152,[02:00:09.455],2668.0,1747.0,3703.0,2071.0,4463.0,1867.0,2801.0,1767.0
153,[02:00:09.495],2633.0,1751.0,3712.0,2074.0,4454.0,1870.0,2813.0,1762.0
154,[02:00:09.535],2633.0,1741.0,3714.0,2060.0,4463.0,1869.0,2797.0,1762.0
155,[02:00:09.575],2617.0,1843.0,3604.0,2197.0,4576.0,2113.0,3135.0,1690.0
156,[02:00:09.615],2567.0,1784.0,3594.0,2198.0,4572.0,2081.0,3131.0,1682.0
157,[02:00:09.655],2560.0,1787.0,3581.0,2174.0,4545.0,2102.0,3158.0,1678.0
158,[02:00:09.695],2560.0,1792.0,3609.0,2201.0,4558.0,2091.0,3126.0,1659.0
159,[02:00:09.735],2707.0,1768.0,3357.0,1960.0,5073.0,2188.0,2618.0,1906.0
160,[02:00:09.775],2662.0,1735.0,3332.0,1959.0,5050.0,2189.0,2625.0,1884.0
161,[02:00:09.815],2634.0,1718.0,3346.0,1944.0,5052.0,2164.0,2618.0,1883.0
162,[02:00:09.855],2648.0,1728.0,3309.0,1951.0,5050.0,2177.0,2582.0,1866.0
163,[02:00:09.895],2553.0,1792.0,3338.0,2039.0,4728.0,2042.0,2922.0,1820.0
164,[02:00:09.935],2486.0,1748.0,3326.0,2029.0,4721.0,2032.0,2906.0,1799.0
165,[02:00:09.975],2485.0,1747.0,3336.0,2038.0,4717.0,2032.0,2881.0,1787.0
166,[02:00:10.015],2485.0,1751.0,3313.0,2033.0,4723.0,2042.0,2902.0,1811.0
167,[02:00:10.055],2615.0,1790.0,3398.0,2044.0,4529.0,2012.0,2915.0,1851.0
168,[02:00:10.095],2542.0,1722.0,3389.0,2059.0,4505.0,2001.0,2894.0,1804.0
169,[02:00:10.135],2562.0,1739.0,3394.0,2051.0,4499.0,1994.0,2908.0,1807.0
170,[02:00:10.175],2544.0,1735.0,3386.0,2052.0,4515.0,1999.0,2909.0,1806.0
171,[02:00:10.215],2690.0,1861.0,3453.0,2167.0,4832.0,2210.0,2855.0,1779.0
172,[02:00:10.255],2608.0,1807.0,3462.0,2170.0,4809.0,2187.0,2837.0,1760.0
173,[02:00:10.295],2654.0,1822.0,3435.0,2169.0,4803.0,2192.0,2808.0,1746.0
174,[02:00:10.335],2632.0,1818.0,3426.0,2161.0,4810.0,2186.0,2830.0,1770.0
175,[02:00:10.375],2913.0,1812.0,3538.0,1943.0,4697.0,2037.0,2916.0,1832.0
176,[02:00:10.415],2871.0,1772.0,3505.0,1953.0,4664.0,2014.0,2904.0,1797.0
177,[02:00:10.455],2882.0,1773.0,3522.0,1955.0,4692.0,2027.0,2907.0,1790.0
178,[02:00:10.495],2863.0,1765.0,3498.0,1953.0,4688.0,2020.0,2881.0,1792.0
179,[02:00:10.535],2815.0,1790.0,3564.0,1976.0,4371.0,2077.0,2693.0,1690.0
180,[02:00:10.575],2754.0,1754.0,3558.0,1978.0,4347.0,2049.0,2656.0,1668.0
181,[02:00:10.615],2751.0,1754.0,3573.0,1983.0,4341.0,2045.0,2650.0,1665.0
182,[02:00:10.655],2768.0,1752.0,3567.0,1981.0,4343.0,2056.0,2624.0,1671.0
183,[02:00:10.695],2743.0,1870.0,3644.0,1990.0,4393.0,2013.0,2758.0,1844.0
184,[02:00:10.735],2676.0,1830.0,3634.0,1992.0,4375.0,1988.0,2705.0,1790.0
185,[02:00:10.775],2690.0,1842.0,3624.0,2000.0,4339.0,1970.0,2715.0,1801.0
186,[02:00:10.815],2675.0,1816.0,3638.0,2004.0,4370.0,1986.0,2723.0,1805.0
187,[02:00:10.855],2303.0,1803.0,3437.0,1930.0,4484.0,1939.0,2835.0,1782.0
188,[02:00:10.895],2237.0,1778.0,3456.0,1941.0,4456.0,1921.0,2808.0,1752.0
189,[02:00:10.935],2226.0,1766.0,3455.0,1929.0,4475.0,1944.0,2794.0,1740.0
190,[02:00:10.975],2274.0,1777.0,3453.0,1942.0,4440.0,1935.0,2814.0,1771.0
191,[02:00:11.015],2396.0,1806.0,3678.0,2037.0,4522.0,2089.0,3059.0,1991.0
192,[02:00:11.055],2369.0,1767.0,3634.0,2014.0,4492.0,2052.0,3030.0,1950.0
193,[02:00:11.095],2333.0,1754.0,3664.0,2025.0,4488.0,2051.0,3038.0,1956.0
194,[02:00:11.135],2372.0,1763.0,3656.0,2020.0,4499.0,2065.0,3035.0,1956.0
195,[02:00:11.175],2760.0,1911.0,3337.0,1870.0,4806.0,2320.0,2959.0,1788.0
196,[02:00:11.215],2712.0,1870.0,3315.0,1845.0,4816.0,2297.0,2944.0,1770.0
197,[02:00:11.255],2722.0,1853.0,3319.0,1830.0,4812.0,2309.0,2932.0,1757.0
198,[02:00:11.295],2722.0,1850.0,3329.0,1850.0,4813.0,2304.0,2935.0,1762.0
199,[02:00:11.335],2359.0,1699.0,3649.0,2080.0,4517.0,2054.0,2893.0,1938.0
200,[02:00:11.375],2296.0,1632.0,3644.0,2078.0,4476.0,2029.0,2839.0,1917.0
201,[02:00:11.415],2319.0,1664.0,3657.0,2084.0,4478.0,2022.0,2830.0,1911.0
202,[02:00:11.455],2312.0,1652.0,3662.0,2090.0,4484.0,2017.0,2846.0,1909.0
203,[02:00:11.495],2588.0,1856.0,3658.0,2235.0,4316.0,2008.0,2774.0,1947.0
204,[02:00:11.535],2576.0,1820.0,3610.0,2219.0,4285.0,1990.0,2764.0,1915.0
205,[02:00:11.575],2583.0,1819.0,3607.0,2209.0,4277.0,1988.0,2757.0,1930.0
206,[02:00:11.615],2577.0,1810.0,3671.0,2233.0,4290.0,2003.0,2738.0,1908.0
207,[02:00:11.655],2805.0,1925.0,3132.0,2003.0,4186.0,2085.0,3034.0,1887.0
208,[02:00:11.695],2737.0,1877.0,3098.0,1995.0,4171.0,2067.0,3017.0,1861.0
209,[02:00:11.735],2752.0,1866.0,3103.0,1983.0,4161.0,2063.0,3006.0,1866.0
210,[02:00:11.775],2750.0,1868.0,3117.0,2005.0,4144.0,2055.0,3033.0,1877.0
211,[02:00:11.815],2627.0,1814.0,3354.0,1844.0,4289.0,2135.0,2875.0,1835.0
212,[02:00:11.855],2582.0,1766.0,3325.0,1832.0,4243.0,2109.0,2864.0,1804.0
213,[02:00:11.895],2629.0,1778.0,3338.0,1835.0,4244.0,2114.0,2860.0,1805.0
214,[02:00:11.935],2620.0,1776.0,3361.0,1844.0,4234.0,2103.0,2852.0,1804.0
215,[02:00:11.975],2703.0,1904.0,3434.0,2006.0,4304.0,2209.0,2910.0,1858.0
216,[02:00:12.015],2661.0,1850.0,3398.0,1993.0,4292.0,2181.0,2915.0,1839.0
217,[02:00:12.055],2652.0,1876.0,3406.0,2001.0,4301.0,2183.0,2891.0,1833.0
218,[02:00:12.095],2669.0,1875.0,3407.0,1993.0,4274.0,2183.0,2909.0,1857.0
219,[02:00:12.135],2452.0,1919.0,3613.0,2068.0,4324.0,2003.0,2841.0,1822.0
220,[02:00:12.175],2381.0,1881.0,3583.0,2058.0,4296.0,1982.0,2805.0,1780.0
221,[02:00:12.215],2394.0,1881.0,3592.0,2053.0,4313.0,1980.0,2794.0,1781.0
222,[02:00:12.255],2379.0,1859.0,3612.0,2050.0,4303.0,1984.0,2813.0,1779.0
223,[02:00:12.295],2714.0,2020.0,3468.0,2055.0,4424.0,2038.0,2823.0,1777.0
224,[02:00:12.335],2684.0,1997.0,3459.0,2058.0,4390.0,2001.0,2765.0,1714.0
225,[02:00:12.375],2691.0,1991.0,3442.0,2038.0,4392.0,1992.0,2774.0,1735.0
226,[02:00:12.415],2675.0,1994.0,3460.0,2061.0,4397.0,2010.0,2792.0,1735.0
227,[02:00:12.455],2594.0,1709.0,3677.0,1993.0,4437.0,2096.0,2892.0,1850.0
228,[02:00:12.495],2550.0,1671.0,3648.0,1988.0,4434.0,2078.0,2858.0,1831.0
229,[02:00:12.535],2563.0,1665.0,3654.0,2003.0,4414.0,2070.0,2861.0,1824.0
230,[02:00:12.575],2540.0,1655.0,3652.0,1987.0,4434.0,2072.0,2862.0,1833.0
231,[02:00:12.615],2404.0,1892.0,3392.0,2031.0,4212.0,2150.0,2957.0,1887.0
232,[02:00:12.655],2349.0,1846.0,3400.0,2008.0,4202.0,2141.0,2938.0,1859.0
233,[02:00:12.695],2365.0,1848.0,3403.0,2020.0,4183.0,2131.0,2973.0,1861.0
234,[02:00:12.735],2357.0,1847.0,3393.0,2013.0,4204.0,2133.0,2933.0,1865.0
235,[02:00:12.775],2551.0,1810.0,3429.0,1995.0,4237.0,1984.0,3133.0,1876.0
236,[02:00:12.815],2489.0,1770.0,3439.0,1993.0,4234.0,1974.0,3094.0,1837.0
237,[02:00:12.855],2512.0,1769.0,3439.0,2006.0,4228.0,1968.0,3069.0,1829.0
238,[02:00:12.895],2531.0,1768.0,3454.0,2008.0,4222.0,1969.0,3123.0,1844.0
239,[02:00:12.935],2502.0,1801.0,3724.0,2120.0,4280.0,2029.0,2903.0,1934.0
240,[02:00:12.975],2474.0,1774.0,3732.0,2139.0,4293.0,2022.0,2875.0,1923.0
241,[02:00:13.015],2445.0,1771.0,3744.0,2121.0,4283.0,2019.0,2861.0,1921.0
242,[02:00:13.055],2457.0,1765.0,3746.0,2130.0,4274.0,2011.0,2844.0,1914.0
243,[02:00:13.095],2609.0,1671.0,3444.0,2050.0,4462.0,2070.0,2847.0,1928.0
244,[02:00:13.135],2583.0,1635.0,3422.0,2033.0,4408.0,2052.0,2854.0,1912.0
245,[02:00:13.175],2583.0,1611.0,3431.0,2038.0,4386.0,2050.0,2847.0,1917.0
246,[02:00:13.215],2557.0,1618.0,3433.0,2044.0,4415.0,2052.0,2829.0,1901.0
247,[02:00:13.255],2539.0,1893.0,3757.0,2216.0,4389.0,2042.0,2601.0,1768.0
248,[02:00:13.295],2519.0,1851.0,3762.0,2205.0,4348.0,2025.0,2559.0,1730.0
249,[02:00:13.335],2508.0,1843.0,3736.0,2210.0,4395.0,2026.0,2544.0,1728.0
250,[02:00:13.375],2506.0,1853.0,3727.0,2206.0,4374.0,2014.0,2549.0,1740.0
251,[02:00:13.415],2425.0,1762.0,3630.0,2162.0,4629.0,2110.0,3107.0,1951.0
252,[02:00:13.455],2398.0,1726.0,3621.0,2163.0,4587.0,2104.0,3054.0,1919.0
253,[02:00:13.495],2419.0,1734.0,3624.0,2154.0,4616.0,2099.0,3070.0,1916.0
254,[02:00:13.535],2369.0,1709.0,3610.0,2169.0,4606.0,2105.0,3068.0,1914.0
255,[02:00:13.575],2447.0,1777.0,3500.0,2061.0,3953.0,2056.0,2633.0,1856.0
256,[02:00:13.615],2392.0,1742.0,3510.0,2073.0,3933.0,2027.0,2585.0,1823.0
257,[02:00:13.655],2415.0,1740.0,3494.0,2052.0,3933.0,2027.0,2612.0,1840.0
258,[02:00:13.695],2390.0,1724.0,3508.0,2059.0,3924.0,2025.0,2602.0,1825.0
259,[02:00:13.735],2729.0,1971.0,3476.0,1995.0,4571.0,2109.0,2742.0,1837.0
260,[02:00:13.775],2669.0,1926.0,3457.0,2008.0,4517.0,2098.0,2734.0,1825.0
261,[02:00:13.815],2692.0,1934.0,3452.0,1989.0,4545.0,2097.0,2723.0,1818.0
262,[02:00:13.855],2693.0,1929.0,3420.0,2001.0,4554.0,2097.0,2730.0,1826.0
263,[02:00:13.895],2431.0,1912.0,3268.0,1988.0,3906.0,2074.0,2800.0,1855.0
264,[02:00:13.935],2368.0,1876.0,3258.0,1980.0,3883.0,2044.0,2747.0,1827.0
265,[02:00:13.975],2368.0,1868.0,3271.0,1979.0,3884.0,2050.0,2779.0,1835.0
266,[02:00:14.015],2362.0,1875.0,3258.0,1983.0,3890.0,2052.0,2756.0,1833.0
267,[02:00:14.055],2325.0,1831.0,3609.0,2182.0,4172.0,1976.0,3146.0,1884.0
268,[02:00:14.095],2259.0,1775.0,3604.0,2167.0,4143.0,1957.0,3139.0,1863.0
269,[02:00:14.135],2273.0,1786.0,3598.0,2170.0,4148.0,1961.0,3110.0,1841.0
270,[02:00:14.175],2281.0,1780.0,3623.0,2181.0,4146.0,1962.0,3117.0,1856.0
271,[02:00:14.215],2545.0,1796.0,3193.0,1955.0,4203.0,2017.0,2910.0,1850.0
272,[02:00:14.255],2481.0,1741.0,3189.0,1942.0,4189.0,2005.0,2894.0,1819.0
273,[02:00:14.295],2499.0,1753.0,3183.0,1957.0,4199.0,2012.0,2917.0,1820.0
274,[02:00:14.335],2497.0,1752.0,3191.0,1955.0,4231.0,2030.0,2904.0,1821.0
275,[02:00:14.375],2683.0,1895.0,3324.0,2045.0,4548.0,2194.0,2968.0,1940.0
276,[02:00:14.415],2599.0,1854.0,3291.0,2039.0,4530.0,2183.0,2966.0,1925.0
277,[02:00:14.455],2636.0,1844.0,3307.0,2048.0,4536.0,2190.0,2965.0,1911.0
278,[02:00:14.495],2615.0,1851.0,3296.0,2028.0,4546.0,2184.0,2974.0,1922.0
279,[02:00:14.535],2385.0,1756.0,3467.0,2036.0,3988.0,1940.0,2813.0,1902.0
280,[02:00:14.575],2342.0,1722.0,3440.0,2019.0,3976.0,1914.0,2808.0,1879.0
281,[02:00:14.615],2332.0,1724.0,3446.0,2039.0,3978.0,1921.0,2802.0,1882.0
282,[02:00:14.655],2364.0,1728.0,3465.0,2024.0,3956.0,1911.0,2790.0,1880.0
283,[02:00:14.695],2619.0,1935.0,3538.0,2013.0,4302.0,2053.0,2840.0,1801.0
284,[02:00:14.735],2573.0,1887.0,3564.0,2025.0,4296.0,2049.0,2782.0,1774.0
285,[02:00:14.775],2558.0,1875.0,3534.0,2007.0,4268.0,2049.0,2802.0,1775.0
286,[02:00:14.815],2558.0,1883.0,3547.0,2021.0,4313.0,2063.0,2796.0,1776.0
287,[02:00:14.855],2930.0,1894.0,3398.0,2012.0,4446.0,2090.0,2957.0,1904.0
288,[02:00:14.895],2861.0,1865.0,3416.0,2009.0,4436.0,2071.0,2931.0,1876.0
289,[02:00:14.935],2902.0,1864.0,3409.0,2014.0,4424.0,2062.0,2937.0,1872.0
290,[02:00:14.975],2885.0,1873.0,3402.0,2018.0,4445.0,2057.0,2927.0,1879.0
291,[02:00:15.015],2791.0,1890.0,3383.0,2007.0,4297.0,2102.0,2683.0,1852.0
292,[02:00:15.055],2747.0,1858.0,3364.0,2004.0,4269.0,2079.0,2661.0,1824.0
293,[02:00:15.095],2752.0,1859.0,3386.0,2016.0,4284.0,2075.0,2689.0,1841.0
294,[02:00:15.135],2740.0,1846.0,3381.0,2005.0,4282.0,2084.0,2654.0,1820.0
295,[02:00:15.175],2651.0,1796.0,3426.0,1981.0,4375.0,2131.0,2921.0,1902.0
296,[02:00:15.215],2637.0,1784.0,3436.0,1983.0,4374.0,2112.0,2883.0,1872.0
297,[02:00:15.255],2622.0,1765.0,3420.0,1980.0,4385.0,2111.0,2913.0,1880.0
298,[02:00:15.295],2627.0,1778.0,3426.0,1975.0,4370.0,2111.0,2885.0,1874.0
299,[02:00:15.335],2306.0,1788.0,3654.0,2048.0,4230.0,1974.0,3094.0,2061.0
300,[02:00:15.375],2266.0,1741.0,3613.0,2033.0,4207.0,1950.0,3073.0,2028.0
301,[02:00:15.415],2272.0,1738.0,3639.0,2032.0,4216.0,1941.0,3068.0,2030.0
302,[02:00:15.455],2266.0,1729.0,3635.0,2039.0,4215.0,1963.0,3093.0,2039.0
303,[02:00:15.495],2515.0,1910.0,3423.0,1977.0,4118.0,2063.0,3126.0,2034.0
304,[02:00:15.535],2454.0,1863.0,3438.0,1974.0,4069.0,2018.0,3084.0,2009.0
305,[02:00:15.575],2440.0,1872.0,3428.0,1983.0,4096.0,2034.0,3107.0,2008.0
306,[02:00:15.615],2435.0,1858.0,3414.0,1967.0,4099.0,2039.0,3097.0,2001.0
307,[02:00:15.655],2563.0,1814.0,3432.0,2050.0,4368.0,2029.0,2875.0,1954.0
308,[02:00:15.695],2534.0,1765.0,3410.0,2051.0,4371.0,2020.0,2865.0,1923.0
309,[02:00:15.735],2534.0,1758.0,3409.0,2055.0,4334.0,2004.0,2859.0,1936.0
310,[02:00:15.775],2536.0,1778.0,3436.0,2058.0,4351.0,2018.0,2857.0,1938.0
311,[02:00:15.815],2396.0,1838.0,3191.0,2045.0,4340.0,2129.0,2697.0,1870.0
312,[02:00:15.855],2353.0,1790.0,3150.0,2040.0,4294.0,2101.0,2680.0,1837.0
313,[02:00:15.895],2381.0,1810.0,3172.0,2040.0,4299.0,2109.0,2644.0,1814.0
314,[02:00:15.935],2330.0,1777.0,3182.0,2047.0,4278.0,2112.0,2660.0,1827.0
315,[02:00:15.975],2869.0,2027.0,3259.0,1982.0,4281.0,2149.0,2678.0,1828.0
316,[02:00:16.015],2826.0,1986.0,3271.0,1988.0,4245.0,2117.0,2656.0,1787.0
317,[02:00:16.055],2807.0,1974.0,3245.0,1983.0,4266.0,2119.0,2629.0,1791.0
318,[02:00:16.095],2822.0,1994.0,3254.0,1988.0,4240.0,2123.0,2632.0,1776.0
319,[02:00:16.135],2731.0,1829.0,3517.0,2016.0,4072.0,2035.0,3105.0,1871.0
320,[02:00:16.175],2689.0,1783.0,3486.0,1995.0,4049.0,2007.0,3100.0,1855.0
321,[02:00:16.215],2699.0,1800.0,3519.0,2003.0,4027.0,1999.0,3100.0,1850.0
322,[02:00:16.255],2694.0,1793.0,3475.0,1999.0,4068.0,2013.0,3089.0,1859.0
323,[02:00:16.295],2738.0,1931.0,3472.0,2013.0,4344.0,2118.0,2833.0,1788.0
324,[02:00:16.335],2667.0,1885.0,3447.0,2002.0,4328.0,2098.0,2793.0,1763.0
325,[02:00:16.375],2652.0,1878.0,3455.0,1994.0,4324.0,2085.0,2796.0,1766.0
326,[02:00:16.415],2691.0,1889.0,3458.0,2017.0,4304.0,2095.0,2819.0,1782.0
327,[02:00:16.455],2730.0,1846.0,3412.0,2014.0,4344.0,1990.0,2707.0,1884.0
328,[02:00:16.495],2700.0,1813.0,3414.0,2003.0,4332.0,1975.0,2672.0,1836.0
329,[02:00:16.535],2692.0,1811.0,3398.0,2010.0,4317.0,1964.0,2663.0,1855.0
330,[02:00:16.575],2704.0,1822.0,3389.0,2005.0,4324.0,1971.0,2671.0,1842.0
331,[02:00:16.615],2387.0,1838.0,3847.0,2207.0,4482.0,2003.0,3131.0,1967.0
332,[02:00:16.655],2321.0,1765.0,3830.0,2197.0,4429.0,1967.0,3118.0,1941.0
333,[02:00:16.695],2338.0,1781.0,3838.0,2208.0,4451.0,1969.0,3105.0,1934.0
334,[02:00:16.735],2343.0,1789.0,3825.0,2202.0,4468.0,1982.0,3119.0,1944.0
335,[02:00:16.775],2749.0,1875.0,3309.0,2085.0,4410.0,1972.0,2711.0,1895.0
336,[02:00:16.815],2731.0,1835.0,3300.0,2074.0,4388.0,1938.0,2711.0,1860.0
337,[02:00:16.855],2707.0,1836.0,3293.0,2080.0,4377.0,1957.0,2711.0,1883.0
338,[02:00:16.895],2721.0,1831.0,3287.0,2073.0,4371.0,1951.0,2695.0,1868.0
339,[02:00:16.935],2423.0,1786.0,3382.0,2071.0,4270.0,2042.0,3023.0,1938.0
340,[02:00:16.975],2403.0,1739.0,3366.0,2051.0,4255.0,2016.0,2991.0,1907.0
341,[02:00:17.015],2398.0,1750.0,3375.0,2056.0,4245.0,2026.0,2992.0,1911.0
342,[02:00:17.055],2400.0,1746.0,3396.0,2083.0,4253.0,2013.0,2967.0,1907.0
343,[02:00:17.095],2667.0,1995.0,3286.0,2088.0,4105.0,2039.0,2881.0,1980.0
344,[02:00:17.135],2594.0,1946.0,3242.0,2062.0,4086.0,2017.0,2855.0,1960.0
345,[02:00:17.175],2622.0,1929.0,3272.0,2088.0,4103.0,2017.0,2853.0,1961.0
346,[02:00:17.215],2598.0,1921.0,3268.0,2103.0,4074.0,2005.0,2844.0,1961.0
347,[02:00:17.255],2159.0,1774.0,3433.0,2090.0,4497.0,2090.0,2587.0,1939.0
348,[02:00:17.295],2158.0,1736.0,3413.0,2092.0,4480.0,2065.0,2591.0,1924.0
349,[02:00:17.335],2168.0,1744.0,3424.0,2081.0,4466.0,2061.0,2546.0,1916.0
350,[02:00:17.375],2162.0,1728.0,3408.0,2073.0,4500.0,2071.0,2577.0,1918.0
351,[02:00:17.415],2550.0,1876.0,3294.0,2075.0,4388.0,2021.0,2502.0,1767.0
352,[02:00:17.455],2469.0,1822.0,3288.0,2061.0,4349.0,2007.0,2493.0,1719.0
353,[02:00:17.495],2507.0,1835.0,3331.0,2083.0,4375.0,2009.0,2474.0,1722.0
354,[02:00:17.535],2503.0,1842.0,3327.0,2072.0,4397.0,2017.0,2463.0,1734.0
355,[02:00:17.575],2445.0,1756.0,3369.0,2048.0,4256.0,2194.0,2596.0,1840.0
356,[02:00:17.615],2411.0,1710.0,3351.0,2041.0,4214.0,2175.0,2566.0,1802.0
357,[02:00:17.655],2406.0,1708.0,3360.0,2042.0,4222.0,2187.0,2570.0,1817.0
358,[02:00:17.695],2404.0,1710.0,3344.0,2050.0,4226.0,2199.0,2589.0,1816.0
359,[02:00:17.735],2591.0,1918.0,3420.0,2053.0,4259.0,2159.0,3207.0,1929.0
360,[02:00:17.775],2544.0,1874.0,3451.0,2064.0,4265.0,2151.0,3206.0,1911.0
361,[02:00:17.815],2540.0,1876.0,3454.0,2060.0,4257.0,2142.0,3193.0,1910.0
362,[02:00:17.855],2557.0,1872.0,3446.0,2056.0,4257.0,2150.0,3182.0,1907.0
363,[02:00:17.895],2513.0,1887.0,3590.0,2060.0,4246.0,2111.0,2717.0,1903.0
364,[02:00:17.935],2441.0,1840.0,3574.0,2068.0,4230.0,2093.0,2692.0,1896.0
365,[02:00:17.975],2437.0,1841.0,3569.0,2050.0,4258.0,2113.0,2700.0,1890.0
366,[02:00:18.015],2446.0,1838.0,3579.0,2059.0,4244.0,2115.0,2698.0,1874.0
367,[02:00:18.055],2658.0,1835.0,3583.0,2151.0,4494.0,2049.0,2765.0,1869.0
368,[02:00:18.095],2641.0,1794.0,3558.0,2149.0,4468.0,2039.0,2734.0,1830.0
369,[02:00:18.135],2616.0,1800.0,3527.0,2126.0,4466.0,2033.0,2756.0,1853.0
370,[02:00:18.175],2617.0,1793.0,3568.0,2130.0,4471.0,2034.0,2745.0,1848.0
371,[02:00:18.215],2651.0,1854.0,3426.0,2061.0,3989.0,2071.0,2729.0,1951.0
372,[02:00:18.255],2580.0,1791.0,3430.0,2061.0,3961.0,2032.0,2693.0,1915.0
373,[02:00:18.295],2596.0,1816.0,3437.0,2078.0,3963.0,2036.0,2691.0,1922.0
374,[02:00:18.335],2579.0,1801.0,3431.0,2061.0,4000.0,2049.0,2713.0,1924.0
375,[02:00:18.375],2773.0,1959.0,3472.0,2040.0,4163.0,2129.0,2579.0,1930.0
376,[02:00:18.415],2715.0,1902.0,3472.0,2037.0,4162.0,2101.0,2522.0,1899.0
377,[02:00:18.455],2697.0,1896.0,3468.0,2034.0,4160.0,2100.0,2525.0,1880.0
378,[02:00:18.495],2683.0,1896.0,3471.0,2038.0,4153.0,2106.0,2522.0,1875.0
379,[02:00:18.535],2570.0,1956.0,3276.0,1953.0,4088.0,2074.0,2740.0,1877.0
380,[02:00:18.575],2500.0,1921.0,3259.0,1951.0,4062.0,2048.0,2724.0,1858.0
381,[02:00:18.615],2482.0,1915.0,3299.0,1965.0,4072.0,2045.0,2749.0,1875.0
382,[02:00:18.655],2515.0,1924.0,3306.0,1974.0,4058.0,2052.0,2727.0,1856.0
383,[02:00:18.695],2642.0,1912.0,3460.0,2138.0,4073.0,2004.0,2917.0,1944.0
384,[02:00:18.735],2612.0,1862.0,3434.0,2129.0,4063.0,1990.0,2900.0,1918.0
385,[02:00:18.775],2600.0,1857.0,3440.0,2121.0,4039.0,1992.0,2894.0,1925.0
386,[02:00:18.815],2607.0,1870.0,3428.0,2116.0,4043.0,1993.0,2912.0,1921.0
387,[02:00:18.855],2665.0,1868.0,3501.0,1950.0,4144.0,2033.0,2558.0,1774.0
388,[02:00:18.895],2633.0,1828.0,3478.0,1929.0,4111.0,2015.0,2529.0,1739.0
389,[02:00:18.935],2634.0,1838.0,3470.0,1924.0,4127.0,2011.0,2488.0,1724.0
390,[02:00:18.975],2591.0,1804.0,3500.0,1935.0,4127.0,2008.0,2502.0,1719.0
391,[02:00:19.015],2332.0,1934.0,3241.0,2095.0,4432.0,2235.0,2924.0,1874.0
392,[02:00:19.055],2308.0,1902.0,3252.0,2094.0,4399.0,2225.0,2882.0,1857.0
393,[02:00:19.095],2306.0,1905.0,3234.0,2086.0,4425.0,2221.0,2868.0,1841.0
394,[02:00:19.135],2307.0,1903.0,3242.0,2082.0,4401.0,2217.0,2875.0,1846.0
395,[02:00:19.175],2692.0,1941.0,3491.0,1957.0,4476.0,2139.0,3005.0,1936.0
396,[02:00:19.215],2639.0,1907.0,3491.0,1957.0,4442.0,2110.0,2977.0,1900.0
397,[02:00:19.255],2646.0,1895.0,3472.0,1946.0,4441.0,2104.0,2977.0,1896.0
398,[02:00:19.295],2627.0,1897.0,3477.0,1956.0,4424.0,2108.0,2974.0,1892.0
399,[02:00:19.335],2244.0,1873.0,3478.0,2163.0,4359.0,2180.0,3020.0,2023.0
400,[02:00:19.375],2196.0,1833.0,3496.0,2161.0,4323.0,2153.0,3014.0,2006.0
401,[02:00:19.415],2191.0,1836.0,3492.0,2149.0,4326.0,2170.0,2996.0,2004.0
402,[02:00:19.455],2199.0,1835.0,3469.0,2166.0,4338.0,2149.0,3001.0,1998.0
403,[02:00:19.495],2597.0,1979.0,3601.0,2078.0,3982.0,2148.0,2763.0,1866.0
404,[02:00:19.535],2538.0,1923.0,3583.0,2069.0,3949.0,2124.0,2761.0,1856.0
405,[02:00:19.575],2536.0,1923.0,3552.0,2056.0,3952.0,2121.0,2745.0,1838.0